Regional Weather Roundup
Issued by NWS Mt. Holly, NJ

Home | Current Version | Previous Version | Text Only | Print | Product List | Glossary On
Versions: 1 2 3 4 5 6 7 8 9 10 11 12 13 14 15 16 17 18 19 20 21 22 23 24 25 26 27
000
ASUS41 KPHI 272212
RWRPHI

REGIONAL WEATHER ROUNDUP
NATIONAL WEATHER SERVICE MOUNT HOLLY NJ
600 PM EDT FRI MAY 27 2016

NOTE:  "FAIR" INDICATES FEW OR NO CLOUDS BELOW 12,000 FEET WITH NO
SIGNIFICANT WEATHER AND/OR OBSTRUCTIONS TO VISIBILITY.

 * = STATION DOES NOT REPORT PRECIPITATION (E.G. RAIN, SNOW, ETC.)
        OR FOG.

NJZ015>026-272300-
SOUTHERN NEW JERSEY

CITY           SKY/WX    TMP DP  RH WIND       PRES   REMARKS
POMONA         SUNNY     78  61  55 S17G23    30.06F
WILDWOOD*      SUNNY    N/A N/A N/A S16G22    30.08S
MILLVILLE      SUNNY     80  66  62 S9        30.05S
WRIGHTSTOWN    PTSUNNY   87  68  52 SW12      29.99F HX  91
MOUNT HOLLY    SUNNY     87  66  49 SW8       30.01F
TRENTON        CLOUDY    87  66  49 SW7       30.00F

$$
NJZ001>014-272300-
NORTHERN NEW JERSEY

CITY           SKY/WX    TMP DP  RH WIND       PRES   REMARKS
SUSSEX         MOSUNNY   82  69  64 NE3       30.00F
ANDOVER*         N/A     86  65  49 VRB6      30.01F
MORRISTOWN     MOSUNNY   88  66  48 W10G18    29.99F HX  90
NEWARK         PTSUNNY   84  65  52 SE7       29.98F
TETERBORO      MOSUNNY   84  62  47 SE7G17    29.98F
CALDWELL       PTSUNNY   87  66  49 S6        29.99F
SOMERVILLE     MOSUNNY   88  66  48 SW3       29.97F HX  90
ALLAIRE*       SUNNY     80  67  64 SE7       30.03F
TOMS RIVER*    SUNNY     82  63  51 S13G18    30.03F

$$
PAZ043-044-047-054-055-060>062-066>071-272300-
EASTERN PENNSYLVANIA

CITY           SKY/WX    TMP DP  RH WIND       PRES   REMARKS
PHILADELPHIA   PTSUNNY   89  64  43 SW15      30.02F HX  90
NORTH PHILA    MOSUNNY   89  66  46 SW9       30.02F HX  91
BLUE BELL*     CLOUDY    86  66  51 SW10      30.01F
DOYLESTOWN     MOSUNNY   85  64  49 VRB7      30.01F
QUAKERTOWN*    MOSUNNY   86  68  54 SW9       30.02F
PERKASIE*      FAIR      84  68  58 SW8       30.03F
POTTSTOWN      SUNNY     85  68  56 S10       30.03F
LANCASTER      CLOUDY    87  64  46 SW10      30.01F
COATESVILLE    PTSUNNY   84  66  54 VRB5G14   30.05F
READING        MOSUNNY   89  64  43 W8        29.99F HX  90
ALLENTOWN      MOSUNNY   86  65  49 SW8       30.00F
MOUNT POCONO   SUNNY     80  63  55 SW10      30.07F
HAZLETON       PTSUNNY   82  63  51 S5        30.09S
LEHIGHTON      FAIR      88  61  40 SW6       30.01S
WILKES BARRE   SUNNY     87  62  43 SW12      30.01S

$$
DEZALL-MDZ008-012-015-019-020-272300-
DELAWARE AND EASTERN MARYLAND

CITY           SKY/WX    TMP DP  RH WIND       PRES   REMARKS
WILMINGTON     CLOUDY    83  67  58 S8        30.03S
DOVER          SUNNY     88  71  57 S12       30.03S HX  93
GEORGETOWN     SUNNY     84  66  54 S15G21    30.07S
EASTON         SUNNY     86  73  66 S9        30.09F HX  93
PATUXENT       MOSUNNY   80  65  59 SE12      30.05S
OCEAN CITY     SUNNY     75  60  59 SW14G22   30.11S
WALLOPS ISLAND FAIR      74  60  61 S16       30.12S
CAMBRIDGE      SUNNY     81  64  57 S12G18    30.06F
SALISBURY      SUNNY     82  64  54 S12       30.08S

$$
PAZ001-021-NYZ056-072-MDZ011-DCZ001-272300-
OTHER NEARBY LOCATIONS

CITY           SKY/WX    TMP DP  RH WIND       PRES   REMARKS
HARRISBURG     PTSUNNY   89  67  47 CALM      29.99F HX  92
STATE COLLEGE  MOSUNNY   81  64  57 S9G20     30.03F
WILLIAMSPORT   CLOUDY    83  65  54 SE5       29.97F
BINGHAMTON     CLOUDY    72  67  84 CALM      30.04S
NEW YORK CITY  SUNNY     81  62  52 VRB3      30.03F
BALTIMORE      PTSUNNY   84  68  58 SE10      30.02F
WASHINGTON DC  FAIR      84  70  62 S12       30.02F

$$




USA.gov is the U.S. government's official web portal to all federal, state and local government web resources and services.